Regional Weather Roundup
Issued by NWS

Home | Current Version | Previous Version | Graphics & Text | Print | Product List | Glossary On
Versions: 1 2 3 4 5 6 7 8 9 10 11 12 13 14 15 16 17 18 19 20 21 22 23 24 25 26 27 28 29 30 31 32 33 34 35 36 37 38 39 40 41 42 43 44 45 46 47 48 49 50
000
ASUS43 KFSD 211302
RWRSD

WEATHER ROUNDUP FOR SOUTH DAKOTA
NATIONAL WEATHER SERVICE SIOUX FALLS SD
700 AM CST WED FEB 21 2018

NOTE: "FAIR" INDICATES FEW OR NO CLOUDS BELOW 12,000 FEET WITH NO
SIGNIFICANT WEATHER AND/OR OBSTRUCTIONS TO VISIBILITY.


SDZ001>005-009-010-012>017-211400-
NORTHWEST AND NORTH CENTRAL SOUTH DAKOTA

CITY           SKY/WX    TMP DP  RH WIND       PRES   REMARKS
BUFFALO          N/A     -5 -14  65 SW5       30.19S WCI -16
FAITH            N/A     -8 -14  74 SW5       30.32F WCI -19
MOBRIDGE       CLEAR    -14 -20  74 NW3       30.38S
$$

SDZ012>016-024>037-041>051-057-063-072>074-211400-
SOUTHWEST AND SOUTH CENTRAL SOUTH DAKOTA

CITY           SKY/WX    TMP DP  RH WIND       PRES   REMARKS
RAPID CTY ARPT PTCLDY   -14 -17  87 NW5       30.27F WCI -26
PIERRE         CLEAR    -12 -17  78 W6        30.45R WCI -26
CUSTER         PTCLDY   -10 -16  74 W5        30.09S WCI -22
ELLSWORTH AFB  PTCLDY   -10 -15  79 NW5       30.25F WCI -21
PHILIP         PTCLDY   -18 -22  82 W5        30.40R WCI -31
PINE RIDGE     CLEAR    -17 -22  78 NW3       30.28F
SPEARFISH        N/A     -4 -11  71 CALM      30.21F
WINNER         FAIR      -1 -11  62 SW8       30.42F WCI -15
$$

SDZ004>011-016>023-039-040-211400-
NORTHEAST SOUTH DAKOTA

CITY           SKY/WX    TMP DP  RH WIND       PRES   REMARKS
ABERDEEN       PTCLDY   -22 -27  77 S5        30.48R WCI -36
WATERTOWN      CLOUDY    -9 -13  83 NW6       30.44R WCI -22
BROOKINGS      PTCLDY    -6 -10  83 MISG      30.48R
SISSETON         N/A      0 -10  63 W13       30.44S WCI -18
$$

SDZ017-020-022-023-036>040-048>070-211400-
SOUTHEAST SOUTH DAKOTA

CITY           SKY/WX    TMP DP  RH WIND       PRES   REMARKS
SIOUX FALLS    PTCLDY    -4  -9  79 CALM      30.51S
HURON          CLEAR     -8 -13  78 E3        30.50S
CHAMBERLAIN    CLEAR     -9 -13  79 CALM      30.47R
MITCHELL       CLEAR     -3 -10  72 W5        30.52S WCI -13
YANKTON        PTCLDY    -3  -6  87 SW3       30.55S
$$

ABBREVIATIONS USED IN REMARKS
   TC - TEMPERATURE IN CELSIUS
  WCI - WIND CHILL INDEX
   HX - HEAT INDEX
  VSB - VISIBILITY





USA.gov is the U.S. government's official web portal to all federal, state and local government web resources and services.